TimeCDT,TemperatureF,Dew PointF,Humidity,Sea Level PressureIn,VisibilityMPH,Wind Direction,Wind SpeedMPH,Gust SpeedMPH,PrecipitationIn,Events,Conditions,WindDirDegrees,DateUTC
12:15 AM,71.6,69.8,94,30.11,7.0,Calm,Calm,-,N/A,,Clear,0,2013-06-24 05:15:00
12:35 AM,71.6,69.8,94,30.10,7.0,Calm,Calm,-,N/A,,Clear,0,2013-06-24 05:35:00
12:55 AM,71.6,69.8,94,30.09,7.0,Calm,Calm,-,N/A,,Clear,0,2013-06-24 05:55:00
1:15 AM,69.8,68.0,94,30.09,7.0,Calm,Calm,-,N/A,,Clear,0,2013-06-24 06:15:00
1:35 AM,69.8,69.8,100,30.09,7.0,Calm,Calm,-,N/A,,Clear,0,2013-06-24 06:35:00
1:55 AM,69.8,68.0,94,30.09,5.0,Calm,Calm,-,N/A,,Clear,0,2013-06-24 06:55:00
2:15 AM,69.8,68.0,94,30.09,7.0,Calm,Calm,-,N/A,,Clear,0,2013-06-24 07:15:00
2:35 AM,69.8,68.0,94,30.09,5.0,Calm,Calm,-,N/A,,Clear,0,2013-06-24 07:35:00
2:55 AM,69.8,68.0,94,30.09,5.0,Calm,Calm,-,N/A,,Clear,0,2013-06-24 07:55:00
3:15 AM,69.8,68.0,94,30.10,4.0,Calm,Calm,-,N/A,,Clear,0,2013-06-24 08:15:00
3:35 AM,69.8,68.0,94,30.09,4.0,Calm,Calm,-,N/A,,Clear,0,2013-06-24 08:35:00
3:55 AM,69.8,68.0,94,30.09,4.0,Calm,Calm,-,N/A,,Clear,0,2013-06-24 08:55:00
4:15 AM,69.8,68.0,94,30.10,3.0,Calm,Calm,-,N/A,,Clear,0,2013-06-24 09:15:00
4:35 AM,68.0,68.0,100,30.11,2.0,Calm,Calm,-,N/A,,Clear,0,2013-06-24 09:35:00
4:55 AM,68.0,68.0,100,30.12,1.8,Calm,Calm,-,N/A,,Mist,0,2013-06-24 09:55:00
5:15 AM,68.0,68.0,100,30.12,1.2,Calm,Calm,-,N/A,,Mist,0,2013-06-24 10:15:00
5:35 AM,68.0,68.0,100,30.12,1.0,Calm,Calm,-,N/A,,Overcast,0,2013-06-24 10:35:00
5:55 AM,68.0,68.0,100,30.12,0.5,Calm,Calm,-,N/A,Fog,Fog,0,2013-06-24 10:55:00
6:15 AM,68.0,68.0,100,30.13,0.2,Calm,Calm,-,N/A,Fog,Fog,0,2013-06-24 11:15:00
6:35 AM,69.8,68.0,94,30.14,0.2,Calm,Calm,-,N/A,Fog,Fog,0,2013-06-24 11:35:00
6:55 AM,69.8,68.0,94,30.14,0.2,Calm,Calm,-,N/A,Fog,Fog,0,2013-06-24 11:55:00
7:15 AM,69.8,69.8,100,30.14,0.2,Calm,Calm,-,N/A,Fog,Fog,0,2013-06-24 12:15:00
7:35 AM,69.8,69.8,100,30.15,3.0,Calm,Calm,-,N/A,,Overcast,0,2013-06-24 12:35:00
7:55 AM,71.6,69.8,94,30.15,3.0,SSE,3.5,-,N/A,,Overcast,150,2013-06-24 12:55:00
8:15 AM,71.6,71.6,100,30.16,5.0,Calm,Calm,-,N/A,,Overcast,0,2013-06-24 13:15:00
8:35 AM,71.6,69.8,94,30.16,5.0,SW,3.5,-,N/A,,Mostly Cloudy,220,2013-06-24 13:35:00
8:55 AM,73.4,71.6,94,30.17,10.0,Calm,Calm,-,N/A,,Mostly Cloudy,0,2013-06-24 13:55:00
9:15 AM,77.0,71.6,83,30.17,10.0,Calm,Calm,-,N/A,,Scattered Clouds,0,2013-06-24 14:15:00
9:35 AM,78.8,71.6,78,30.17,10.0,SSE,3.5,-,N/A,,Mostly Cloudy,150,2013-06-24 14:35:00
9:55 AM,77.0,71.6,83,30.16,10.0,Calm,Calm,-,N/A,,Mostly Cloudy,0,2013-06-24 14:55:00
10:15 AM,78.8,71.6,78,30.17,10.0,Calm,Calm,-,N/A,,Scattered Clouds,0,2013-06-24 15:15:00
10:35 AM,78.8,71.6,78,30.16,10.0,Calm,Calm,-,N/A,,Scattered Clouds,0,2013-06-24 15:35:00
10:55 AM,80.6,71.6,74,30.16,10.0,Calm,Calm,-,N/A,,Mostly Cloudy,0,2013-06-24 15:55:00
11:15 AM,80.6,71.6,74,30.16,10.0,Calm,Calm,-,N/A,,Mostly Cloudy,0,2013-06-24 16:15:00
11:35 AM,82.4,71.6,70,30.16,10.0,Calm,Calm,-,N/A,,Scattered Clouds,0,2013-06-24 16:35:00
11:55 AM,82.4,69.8,66,30.15,10.0,Calm,Calm,-,N/A,,Scattered Clouds,0,2013-06-24 16:55:00
12:15 PM,82.4,71.6,70,30.14,10.0,East,3.5,-,N/A,,Scattered Clouds,100,2013-06-24 17:15:00
12:35 PM,82.4,69.8,66,30.14,10.0,Calm,Calm,-,N/A,,Clear,0,2013-06-24 17:35:00
12:55 PM,86.0,71.6,62,30.14,10.0,ESE,5.8,-,N/A,,Scattered Clouds,110,2013-06-24 17:55:00
1:15 PM,86.0,69.8,58,30.13,10.0,Calm,Calm,-,N/A,,Clear,0,2013-06-24 18:15:00
1:35 PM,86.0,69.8,58,30.12,10.0,Calm,Calm,-,N/A,,Clear,0,2013-06-24 18:35:00
1:55 PM,87.8,69.8,55,30.11,10.0,ESE,6.9,-,N/A,,Clear,110,2013-06-24 18:55:00
2:15 PM,87.8,71.6,58,30.11,10.0,SSE,3.5,-,N/A,,Clear,150,2013-06-24 19:15:00
2:35 PM,86.0,71.6,62,30.11,10.0,SSE,4.6,-,N/A,,Scattered Clouds,160,2013-06-24 19:35:00
2:55 PM,87.8,69.8,55,30.10,10.0,SE,8.1,-,N/A,,Mostly Cloudy,140,2013-06-24 19:55:00
3:15 PM,89.6,71.6,55,30.09,10.0,East,8.1,-,N/A,,Mostly Cloudy,100,2013-06-24 20:15:00
3:35 PM,89.6,71.6,55,30.09,10.0,SE,8.1,-,N/A,,Scattered Clouds,130,2013-06-24 20:35:00
3:55 PM,87.8,71.6,58,30.08,10.0,SSE,5.8,-,N/A,,Scattered Clouds,160,2013-06-24 20:55:00
4:15 PM,87.8,71.6,58,30.08,10.0,South,5.8,-,N/A,,Mostly Cloudy,190,2013-06-24 21:15:00
4:35 PM,87.8,71.6,58,30.07,10.0,South,4.6,-,N/A,,Scattered Clouds,180,2013-06-24 21:35:00
4:55 PM,87.8,71.6,58,30.07,10.0,South,5.8,-,N/A,,Scattered Clouds,190,2013-06-24 21:55:00
5:15 PM,87.8,71.6,58,30.06,10.0,SSE,5.8,-,N/A,,Scattered Clouds,150,2013-06-24 22:15:00
5:35 PM,87.8,73.4,62,30.06,10.0,South,6.9,-,N/A,,Clear,170,2013-06-24 22:35:00
5:55 PM,86.0,71.6,62,30.06,10.0,South,4.6,-,N/A,,Clear,180,2013-06-24 22:55:00
6:15 PM,86.0,69.8,58,30.06,10.0,South,8.1,-,N/A,,Clear,170,2013-06-24 23:15:00
6:35 PM,86.0,71.6,62,30.06,10.0,SSE,6.9,-,N/A,,Clear,150,2013-06-24 23:35:00
6:55 PM,82.4,73.4,74,30.06,10.0,South,8.1,-,N/A,,Clear,170,2013-06-24 23:55:00
7:15 PM,80.6,71.6,74,30.07,10.0,South,5.8,-,N/A,,Clear,180,2013-06-25 00:15:00
7:35 PM,80.6,71.6,74,30.07,10.0,South,4.6,-,N/A,,Clear,170,2013-06-25 00:35:00
7:55 PM,80.6,69.8,70,30.08,10.0,South,6.9,-,N/A,,Clear,170,2013-06-25 00:55:00
8:15 PM,78.8,69.8,74,30.09,10.0,Calm,Calm,-,N/A,,Clear,0,2013-06-25 01:15:00
8:35 PM,77.0,69.8,78,30.09,10.0,Calm,Calm,-,N/A,,Clear,0,2013-06-25 01:35:00
8:55 PM,77.0,69.8,78,30.08,10.0,Calm,Calm,-,N/A,,Clear,0,2013-06-25 01:55:00
9:15 PM,75.2,69.8,83,30.09,10.0,Calm,Calm,-,N/A,,Clear,0,2013-06-25 02:15:00
9:35 PM,73.4,69.8,88,30.09,10.0,Calm,Calm,-,N/A,,Clear,0,2013-06-25 02:35:00
9:55 PM,73.4,69.8,88,30.10,10.0,Calm,Calm,-,N/A,,Clear,0,2013-06-25 02:55:00
10:15 PM,71.6,69.8,94,30.10,10.0,Calm,Calm,-,N/A,,Clear,0,2013-06-25 03:15:00
10:35 PM,73.4,69.8,88,30.10,10.0,Calm,Calm,-,N/A,,Clear,0,2013-06-25 03:35:00
10:55 PM,73.4,69.8,88,30.10,10.0,South,3.5,-,N/A,,Clear,170,2013-06-25 03:55:00
11:15 PM,71.6,69.8,94,30.10,10.0,Calm,Calm,-,N/A,,Clear,0,2013-06-25 04:15:00
11:35 PM,71.6,69.8,94,30.10,10.0,Calm,Calm,-,N/A,,Clear,0,2013-06-25 04:35:00
11:55 PM,71.6,69.8,94,30.11,10.0,Calm,Calm,-,N/A,,Clear,0,2013-06-25 04:55:00